Location: Lecco
(45.8566°N, 9.3977°E)
Time: 06:44:54
(UTC+02:00)

A-11 Canister half - Pass Details

Date: 14 August 2020
Orbit: 1514 x 1686 km, 47.2° (Epoch: 21 September)

Event Time Altitude Azimuth Distance (km) Brightness Sun altitude
Rises 23:28:40 0° 291° (WNW) 4,831 12.4 -24.5°
Reaches altitude 10° 23:31:46 10° 288° (WNW) 3,865 11.7 -24.7°
Maximum altitude 23:41:29 62° 211° (SSW) 1,831 9.1 -25.6°
Enters shadow 23:44:58 43° 153° (SSE) 2,212 9.3 -25.9°
